N6ZQK Weather Reports


Display with metric or nautical units.
time (UTC)temp
F
wind
direction
speed
MPH
gust
MPH
rain 1hr
in
rain 24hr
in
rain mn
in
humidity
%
barometer
mb
20260906123004 56 106 5.0 12.0 0.00 0.00 0.00 74 1011.9
20260906122403 56 103 5.0 15.0 0.00 0.00 0.00 74 1011.8
20260906121803 56 102 5.0 15.0 0.00 0.00 0.00 73 1011.9
20260906121203 56 105 5.0 12.0 0.00 0.00 0.00 72 1012.0
20260906120603 56 108 5.0 13.0 0.00 0.00 0.00 73 1012.0
20260906120004 56 105 3.0 10.0 0.00 0.00 0.00 73 1011.6
20260906115403 56 100 3.0 9.0 0.00 0.00 0.00 72 1011.5
20260906114804 57 102 4.0 10.0 0.00 0.00 0.00 71 1011.7
20260906114203 57 106 4.0 12.0 0.00 0.00 0.00 72 1011.6
20260906113603 57 108 4.0 12.0 0.00 0.00 0.00 71 1011.6
20260906113003 57 107 4.0 10.0 0.00 0.00 0.00 70 1011.7
20260906112617 57 104 4.0 12.0 0.00 0.00 0.00 71 1011.6
20260906111803 57 102 5.0 14.0 0.00 0.00 0.00 71 1011.6
20260906111203 57 103 5.0 13.0 0.00 0.00 0.00 70 1011.6
20260906110603 57 101 5.0 14.0 0.00 0.00 0.00 71 1011.5
20260906110003 57 99 5.0 13.0 0.00 0.00 0.00 71 1011.7
20260906105403 57 99 6.0 13.0 0.00 0.00 0.00 71 1011.7
20260906104803 57 99 6.0 14.0 0.00 0.00 0.00 71 1011.6
20260906104203 57 100 6.0 14.0 0.00 0.00 0.00 71 1011.6
20260906103603 57 98 6.0 14.0 0.00 0.00 0.00 71 1011.7
20260906103004 57 96 7.0 15.0 0.00 0.00 0.00 70 1011.9
20260906102403 57 96 7.0 15.0 0.00 0.00 0.00 70 1011.8
20260906101803 57 96 7.0 18.0 0.00 0.00 0.00 70 1011.8
20260906101418 57 97 7.0 18.0 0.00 0.00 0.00 70 1011.8
20260906100817 57 97 7.0 15.0 0.00 0.00 0.00 70 1011.9
20260906100217 57 97 6.0 15.0 0.00 0.00 0.00 71 1011.9
20260906095618 57 97 6.0 15.0 0.00 0.00 0.00 71 1011.8
20260906094803 57 98 6.0 16.0 0.00 0.00 0.00 70 1011.8
20260906094203 57 101 6.0 14.0 0.00 0.00 0.00 70 1011.8
20260906093603 57 102 6.0 14.0 0.00 0.00 0.00 70 1011.9
20260906093218 57 100 7.0 16.0 0.00 0.00 0.00 69 1011.9
20260906092403 57 95 5.0 16.0 0.00 0.00 0.00 70 1012.0
20260906091803 57 98 4.0 12.0 0.00 0.00 0.00 70 1011.9
20260906091203 57 101 4.0 12.0 0.00 0.00 0.00 71 1012.0
20260906090603 57 96 3.0 10.0 0.00 0.00 0.00 71 1012.0
20260906090003 57 91 4.0 12.0 0.00 0.00 0.00 71 1011.9
20260906085403 57 96 4.0 12.0 0.00 0.00 0.00 71 1012.0
20260906084803 57 94 4.0 14.0 0.00 0.00 0.00 70 1012.0
20260906084203 57 99 4.0 14.0 0.00 0.00 0.00 71 1012.0
20260906083603 57 99 5.0 14.0 0.00 0.00 0.00 71 1012.0
20260906083004 57 98 5.0 12.0 0.00 0.00 0.00 70 1012.1
20260906082403 57 98 5.0 12.0 0.00 0.00 0.00 70 1012.0
20260906081803 57 98 4.0 10.0 0.00 0.00 0.00 72 1011.9
20260906081203 57 98 3.0 9.0 0.00 0.00 0.00 71 1012.0
20260906080603 57 100 2.0 6.0 0.00 0.00 0.00 71 1012.1
20260906080003 57 100 2.0 7.0 0.00 0.00 0.00 71 1012.3
20260906075618 57 100 3.0 7.0 0.00 0.00 0.00 70 1012.4
20260906074803 57 104 3.0 14.0 0.00 0.00 0.00 70 1012.4
20260906074416 57 105 2.0 14.0 0.00 0.00 0.00 70 1012.5
20260906073603 57 105 1.0 5.0 0.00 0.00 0.00 70 1012.5
20260906073003 57 105 1.0 5.0 0.00 0.00 0.00 70 1012.5
20260906072403 57 105 1.0 5.0 0.00 0.00 0.00 70 1012.5
20260906071803 57 105 1.0 6.0 0.00 0.00 0.00 70 1012.5
20260906071203 58 105 1.0 6.0 0.00 0.00 0.00 70 1012.3
20260906070818 58 105 1.0 5.0 0.00 0.00 0.00 69 1012.3
20260906070004 58 105 1.0 6.0 0.00 0.00 0.00 70 1012.5
20260906065403 58 105 2.0 6.0 0.00 0.00 0.00 70 1012.5
20260906065017 58 105 1.0 6.0 0.00 0.00 0.00 70 1012.5
20260906064203 58 105 1.0 5.0 0.00 0.00 0.00 69 1012.5
20260906063603 58 105 1.0 3.0 0.00 0.00 0.00 70 1012.5
20260906063003 58 105 1.0 5.0 0.00 0.00 0.00 68 1012.6
20260906062403 58 105 1.0 5.0 0.00 0.00 0.00 69 1012.6
20260906061803 58 105 1.0 4.0 0.00 0.00 0.00 68 1012.6
20260906061203 58 105 1.0 5.0 0.00 0.00 0.00 68 1012.4
20260906060603 58 105 2.0 5.0 0.00 0.00 0.00 68 1012.4
20260906060003 59 105 2.0 6.0 0.00 0.00 0.00 68 1012.6
20260906055403 59 106 2.0 7.0 0.00 0.00 0.00 68 1012.5
20260906054803 59 107 2.0 7.0 0.00 0.00 0.00 67 1012.5
20260906054418 59 110 3.0 10.0 0.00 0.00 0.00 68 1012.6
20260906053603 59 118 2.0 10.0 0.00 0.00 0.00 67 1012.5
20260906053003 59 131 2.0 9.0 0.00 0.00 0.00 67 1012.6
20260906052403 59 155 2.0 7.0 0.00 0.00 0.00 67 1012.6
20260906051803 59 170 1.0 6.0 0.00 0.00 0.00 67 1012.6
20260906051203 59 175 1.0 6.0 0.00 0.00 0.00 67 1012.6
20260906050603 59 178 1.0 5.0 0.00 0.00 0.00 67 1012.6
20260906050004 59 181 1.0 4.0 0.00 0.00 0.00 66 1012.8
20260906045403 59 182 1.0 4.0 0.00 0.00 0.00 67 1012.9
20260906044803 59 186 1.0 5.0 0.00 0.00 0.00 67 1012.9
20260906044203 59 193 2.0 5.0 0.00 0.00 0.00 66 1013.0
20260906043603 59 199 1.0 4.0 0.00 0.00 0.00 67 1012.8
20260906043003 59 200 1.0 3.0 0.00 0.00 0.00 66 1012.8
20260906042403 59 200 1.0 3.0 0.00 0.00 0.00 67 1012.8
20260906042018 59 200 0.0 3.0 0.00 0.00 0.00 67 1012.9
20260906041204 59 200 0.0 2.0 0.00 0.00 0.00 66 1012.8
20260906040603 60 200 1.0 2.0 0.00 0.00 0.00 64 1012.8
20260906040004 60 200 0.0 2.0 0.00 0.00 0.00 64 1013.2
20260906035403 60 200 0.0 2.0 0.00 0.00 0.00 63 1013.1
20260906034803 60 200 0.0 2.0 0.00 0.00 0.00 64 1013.0
20260906034417 60 200 0.0 2.0 0.00 0.00 0.00 64 1013.0
20260906033603 60 200 0.0 2.0 0.00 0.00 0.00 64 1013.0
20260906033003 60 200 0.0 2.0 0.00 0.00 0.00 63 1012.8
20260906032403 61 200 0.0 2.0 0.00 0.00 0.00 62 1012.8
20260906031803 61 200 0.0 2.0 0.00 0.00 0.00 63 1012.8
20260906031417 61 200 0.0 2.0 0.00 0.00 0.00 62 1012.8
20260906030603 62 200 0.0 2.0 0.00 0.00 0.00 61 1012.6
20260906030003 62 200 0.0 2.0 0.00 0.00 0.00 62 1012.9
20260906025403 62 200 0.0 4.0 0.00 0.00 0.00 61 1012.9
20260906024803 63 200 0.0 4.0 0.00 0.00 0.00 60 1012.9
20260906024203 63 200 0.0 2.0 0.00 0.00 0.00 60 1012.8
20260906023603 64 200 0.0 2.0 0.00 0.00 0.00 59 1012.6
20260906023003 64 200 0.0 2.0 0.00 0.00 0.00 58 1012.6
20260906022403 64 200 0.0 2.0 0.00 0.00 0.00 58 1012.6
20260906022017 65 200 0.0 2.0 0.00 0.00 0.00 57 1012.6
20260906021203 66 200 0.0 4.0 0.00 0.00 0.00 58 1012.5
20260906020603 66 200 0.0 4.0 0.00 0.00 0.00 57 1012.5
20260906020003 66 200 0.0 3.0 0.00 0.00 0.00 54 1012.7
20260906015403 66 200 0.0 4.0 0.00 0.00 0.00 52 1012.8
20260906014803 66 198 1.0 4.0 0.00 0.00 0.00 53 1012.7
20260906014203 66 203 1.0 6.0 0.00 0.00 0.00 53 1012.8
20260906013604 66 234 1.0 6.0 0.00 0.00 0.00 55 1012.8
20260906013003 66 268 0.0 5.0 0.00 0.00 0.00 54 1012.8
20260906012403 66 257 2.0 7.0 0.00 0.00 0.00 52 1012.9
20260906011803 65 260 2.0 7.0 0.00 0.00 0.00 53 1012.8
20260906011418 65 271 1.0 5.0 0.00 0.00 0.00 55 1012.9
20260906010603 65 271 0.0 4.0 0.00 0.00 0.00 54 1013.0
20260906010003 65 271 0.0 1.0 0.00 0.00 0.00 53 1013.0
20260906005403 66 271 0.0 2.0 0.00 0.00 0.00 53 1013.0
20260906004803 66 271 0.0 4.0 0.00 0.00 0.00 53 1013.0
20260906004203 66 271 0.0 4.0 0.00 0.00 0.00 52 1013.0
20260906003817 66 271 0.0 2.0 0.00 0.00 0.00 51 1013.2
20260906003003 67 271 0.0 2.0 0.00 0.00 0.00 51 1012.9
20260906002403 67 271 0.0 3.0 0.00 0.00 0.00 51 1012.8
20260906002019 67 271 1.0 5.0 0.00 0.00 0.00 49 1012.9
20260906001203 68 269 1.0 5.0 0.00 0.00 0.00 49 1012.9
20260906000603 68 264 1.0 5.0 0.00 0.00 0.00 46 1012.8
20260906000003 68 281 1.0 8.0 0.00 0.00 0.00 48 1012.8
20260905235403 68 213 1.0 8.0 0.00 0.00 0.00 46 1012.8
20260905234803 68 194 1.0 5.0 0.00 0.00 0.00 45 1012.8
20260905234204 67 203 1.0 5.0 0.00 0.00 0.00 45 1012.7
20260905233603 67 195 1.0 5.0 0.00 0.00 0.00 48 1012.7
20260905233003 67 177 1.0 9.0 0.00 0.00 0.00 51 1012.8
20260905232403 67 190 3.0 9.0 0.00 0.00 0.00 47 1012.9
20260905231803 67 208 2.0 9.0 0.00 0.00 0.00 48 1013.0
20260905231203 67 226 1.0 6.0 0.00 0.00 0.00 48 1013.1
20260905230603 67 190 1.0 9.0 0.00 0.00 0.00 51 1013.0
20260905230003 66 192 1.0 9.0 0.00 0.00 0.00 50 1013.2
20260905225403 66 190 1.0 3.0 0.00 0.00 0.00 49 1013.3
20260905224803 66 189 0.0 3.0 0.00 0.00 0.00 48 1013.3
20260905224417 66 216 1.0 5.0 0.00 0.00 0.00 49 1013.4
20260905223603 66 235 1.0 5.0 0.00 0.00 0.00 47 1013.2
20260905223003 67 227 1.0 5.0 0.00 0.00 0.00 50 1013.2
20260905222403 67 227 2.0 9.0 0.00 0.00 0.00 48 1013.2
20260905221803 67 218 5.0 13.0 0.00 0.00 0.00 48 1013.2
20260905221203 67 217 3.0 13.0 0.00 0.00 0.00 50 1013.2
20260905220603 67 198 2.0 10.0 0.00 0.00 0.00 50 1013.2
20260905220003 68 213 3.0 10.0 0.00 0.00 0.00 47 1013.3
20260905215403 68 234 1.0 5.0 0.00 0.00 0.00 50 1013.3
20260905214803 68 231 1.0 6.0 0.00 0.00 0.00 48 1013.2
20260905214203 68 224 3.0 9.0 0.00 0.00 0.00 50 1013.2
20260905213818 68 211 3.0 9.0 0.00 0.00 0.00 49 1013.2
20260905213003 68 192 1.0 6.0 0.00 0.00 0.00 49 1013.3
20260905212403 68 176 2.0 7.0 0.00 0.00 0.00 47 1013.3
20260905211803 68 182 4.0 10.0 0.00 0.00 0.00 46 1013.4
20260905211203 68 197 6.0 13.0 0.00 0.00 0.00 47 1013.4
20260905210603 68 200 4.0 14.0 0.00 0.00 0.00 49 1013.4
20260905210004 69 217 4.0 10.0 0.00 0.00 0.00 48 1013.3
20260905205403 69 216 4.0 10.0 0.00 0.00 0.00 46 1013.3
20260905204803 69 218 6.0 13.0 0.00 0.00 0.00 47 1013.2
20260905204204 69 226 4.0 14.0 0.00 0.00 0.00 48 1013.1
20260905203603 69 241 4.0 16.0 0.00 0.00 0.00 48 1013.1
20260905203218 68 241 4.0 16.0 0.00 0.00 0.00 48 1013.0
20260905202403 68 236 5.0 15.0 0.00 0.00 0.00 47 1013.3
20260905201803 68 234 6.0 15.0 0.00 0.00 0.00 49 1013.2
20260905201203 68 225 4.0 12.0 0.00 0.00 0.00 49 1013.3
20260905200603 68 243 4.0 10.0 0.00 0.00 0.00 47 1013.3
20260905200003 68 218 3.0 12.0 0.00 0.00 0.00 51 1013.2
20260905195403 68 189 5.0 14.0 0.00 0.00 0.00 48 1013.3
20260905194803 67 191 5.0 14.0 0.00 0.00 0.00 51 1013.4
20260905194203 67 204 4.0 14.0 0.00 0.00 0.00 48 1013.4
20260905193603 67 207 3.0 9.0 0.00 0.00 0.00 48 1013.4
20260905193003 67 174 3.0 10.0 0.00 0.00 0.00 51 1013.3
20260905192403 67 193 5.0 12.0 0.00 0.00 0.00 49 1013.4
20260905191803 67 198 3.0 12.0 0.00 0.00 0.00 52 1013.3
20260905191203 67 198 4.0 14.0 0.00 0.00 0.00 49 1013.4
20260905190603 67 203 5.0 14.0 0.00 0.00 0.00 51 1013.3
20260905190003 67 218 5.0 13.0 0.00 0.00 0.00 50 1013.2
20260905185403 67 205 4.0 10.0 0.00 0.00 0.00 53 1013.3
20260905184803 67 159 4.0 12.0 0.00 0.00 0.00 51 1013.3
20260905184203 67 177 4.0 12.0 0.00 0.00 0.00 50 1013.3
20260905183603 66 189 3.0 10.0 0.00 0.00 0.00 53 1013.1
20260905183003 66 175 1.0 9.0 0.00 0.00 0.00 53 1013.1
20260905182403 66 166 2.0 13.0 0.00 0.00 0.00 55 1013.1
20260905181803 66 167 3.0 13.0 0.00 0.00 0.00 55 1013.1
20260905181203 65 173 3.0 12.0 0.00 0.00 0.00 55 1013.3
20260905180603 65 168 3.0 12.0 0.00 0.00 0.00 63 1013.2
20260905180217 65 162 3.0 12.0 0.00 0.00 0.00 57 1013.2
20260905175404 65 147 5.0 13.0 0.00 0.00 0.00 56 1013.1
20260905174803 65 155 6.0 13.0 0.00 0.00 0.00 56 1013.1
20260905174203 65 150 6.0 14.0 0.00 0.00 0.00 56 1013.0
20260905173603 64 147 5.0 14.0 0.00 0.00 0.00 57 1013.0
20260905173004 64 157 4.0 12.0 0.00 0.00 0.00 59 1013.0
20260905172403 64 163 5.0 13.0 0.00 0.00 0.00 57 1013.1
20260905172018 64 165 5.0 13.0 0.00 0.00 0.00 57 1013.0
20260905171417 64 165 4.0 12.0 0.00 0.00 0.00 59 1013.0
20260905170603 63 149 3.0 10.0 0.00 0.00 0.00 60 1013.1
20260905170003 63 144 3.0 12.0 0.00 0.00 0.00 58 1013.2
20260905165403 63 140 3.0 12.0 0.00 0.00 0.00 59 1013.0
20260905164803 63 136 2.0 9.0 0.00 0.00 0.00 61 1013.1
20260905164203 62 123 1.0 6.0 0.00 0.00 0.00 63 1013.0
20260905163603 62 119 1.0 6.0 0.00 0.00 0.00 65 1012.9
20260905163003 62 119 1.0 4.0 0.00 0.00 0.00 65 1013.0
20260905162403 61 119 1.0 5.0 0.00 0.00 0.00 61 1013.2
20260905161803 61 121 2.0 9.0 0.00 0.01 0.00 69 1013.1
20260905161204 60 125 2.0 9.0 0.00 0.03 0.00 65 1013.2
20260905160603 59 112 1.0 7.0 0.00 0.06 0.00 69 1013.4
20260905160003 58 111 1.0 7.0 0.00 0.06 0.00 74 1013.4
20260905155403 57 111 1.0 5.0 0.00 0.06 0.00 75 1013.4
20260905154803 57 110 1.0 6.0 0.00 0.06 0.00 77 1013.4
20260905154203 56 107 1.0 6.0 0.00 0.06 0.00 77 1013.6
20260905153818 56 107 2.0 6.0 0.00 0.06 0.00 78 1013.6
20260905153003 55 110 1.0 6.0 0.00 0.06 0.00 79 1013.6
20260905152403 55 108 2.0 7.0 0.00 0.06 0.00 79 1013.6
20260905151803 54 100 2.0 7.0 0.00 0.06 0.00 79 1013.9
20260905151203 54 101 2.0 6.0 0.00 0.07 0.00 80 1013.8
20260905150603 54 106 2.0 7.0 0.00 0.07 0.00 79 1013.8
20260905150003 54 104 2.0 7.0 0.00 0.08 0.00 80 1013.4
20260905145403 53 93 2.0 7.0 0.00 0.09 0.00 79 1013.5
20260905145017 53 95 3.0 9.0 0.00 0.09 0.00 80 1013.5
20260905144203 53 105 3.0 9.0 0.00 0.10 0.00 80 1013.6
20260905143603 53 105 2.0 9.0 0.00 0.12 0.00 80 1013.6
20260905143003 53 100 3.0 10.0 0.00 0.12 0.00 80 1013.6
20260905142403 53 102 3.0 9.0 0.00 0.12 0.00 79 1013.5
20260905141803 53 98 3.0 9.0 0.00 0.12 0.00 79 1013.5
20260905141203 53 98 3.0 9.0 0.00 0.12 0.00 79 1013.4
20260905140603 53 108 3.0 9.0 0.00 0.12 0.00 79 1013.3
20260905140004 53 101 3.0 9.0 0.00 0.12 0.00 79 1012.9
20260905135403 53 100 3.0 7.0 0.00 0.12 0.00 79 1012.9
20260905135018 53 101 3.0 7.0 0.00 0.12 0.00 79 1012.9
20260905134418 53 98 4.0 10.0 0.00 0.13 0.00 78 1012.9
20260905133817 53 98 3.0 10.0 0.00 0.13 0.00 79 1012.9
20260905133003 53 99 3.0 8.0 0.00 0.13 0.00 79 1012.9
20260905132403 53 99 4.0 9.0 0.00 0.14 0.00 78 1012.8
20260905131803 53 101 3.0 9.0 0.00 0.15 0.00 78 1012.7
20260905131203 53 100 3.0 9.0 0.00 0.15 0.00 78 1012.6
20260905130603 53 95 3.0 7.0 0.00 0.16 0.00 78 1012.6
20260905130003 53 97 3.0 10.0 0.00 0.16 0.00 79 1012.6
20260905125619 53 98 4.0 10.0 0.00 0.16 0.00 79 1012.6
20260905124803 53 96 4.0 9.0 0.00 0.20 0.00 79 1012.6
20260905124203 52 99 4.0 9.0 0.00 0.20 0.00 78 1012.6
20260905123603 52 98 4.0 9.0 0.00 0.20 0.00 79 1012.6